TimeEST,TemperatureF,Dew PointF,Humidity,Sea Level PressureIn,VisibilityMPH,Wind Direction,Wind SpeedMPH,Gust SpeedMPH,PrecipitationIn,Events,Conditions,WindDirDegrees,DateUTC
12:54 AM,30.0,28.0,92,30.04,6.0,SW,8.1,-,N/A,,Clear,220,2013-12-17 05:54:00
1:54 AM,33.1,30.0,89,30.04,7.0,SW,8.1,-,N/A,,Clear,230,2013-12-17 06:54:00
2:54 AM,34.0,30.9,89,30.06,7.0,West,9.2,-,N/A,,Scattered Clouds,260,2013-12-17 07:54:00
3:05 AM,33.8,30.2,87,29.98,7.0,West,10.4,-,N/A,,Mostly Cloudy,270,2013-12-17 08:05:00
3:29 AM,33.8,30.2,87,29.98,7.0,WNW,11.5,-,N/A,,Overcast,300,2013-12-17 08:29:00
3:54 AM,32.0,30.0,92,30.06,5.0,WNW,16.1,-,N/A,,Overcast,290,2013-12-17 08:54:00
4:54 AM,30.9,28.9,92,30.06,4.0,WNW,12.7,-,N/A,,Overcast,290,2013-12-17 09:54:00
5:43 AM,30.2,28.4,93,29.98,2.5,WNW,8.1,-,N/A,,Overcast,300,2013-12-17 10:43:00
5:52 AM,28.4,28.4,100,29.98,3.0,WNW,8.1,-,N/A,,Overcast,300,2013-12-17 10:52:00
5:54 AM,28.9,28.0,96,30.07,3.0,WNW,8.1,-,N/A,,Overcast,290,2013-12-17 10:54:00
6:54 AM,28.9,27.0,92,30.11,3.0,WNW,9.2,-,N/A,,Overcast,300,2013-12-17 11:54:00
7:08 AM,28.4,26.6,93,30.03,2.5,NNW,12.7,-,N/A,,Overcast,330,2013-12-17 12:08:00
7:28 AM,28.4,26.6,93,30.04,3.0,NW,9.2,-,N/A,,Overcast,310,2013-12-17 12:28:00
7:54 AM,27.0,26.1,96,30.12,5.0,WNW,6.9,-,N/A,,Overcast,290,2013-12-17 12:54:00
8:54 AM,28.0,25.0,88,30.13,5.0,WSW,5.8,-,N/A,,Overcast,250,2013-12-17 13:54:00
9:54 AM,28.0,24.1,85,30.14,7.0,WSW,9.2,-,N/A,,Overcast,250,2013-12-17 14:54:00
10:14 AM,28.4,24.8,86,30.06,7.0,WSW,10.4,-,N/A,,Overcast,250,2013-12-17 15:14:00
10:54 AM,27.0,23.0,85,30.16,7.0,WNW,10.4,-,N/A,,Overcast,290,2013-12-17 15:54:00
11:54 AM,27.0,23.0,85,30.13,7.0,West,10.4,-,N/A,,Overcast,260,2013-12-17 16:54:00
12:54 PM,28.0,23.0,81,30.09,8.0,West,8.1,-,N/A,,Overcast,270,2013-12-17 17:54:00
1:41 PM,30.2,24.8,80,29.97,8.0,West,9.2,-,N/A,,Partly Cloudy,260,2013-12-17 18:41:00
1:54 PM,30.0,24.1,79,30.04,8.0,WSW,6.9,-,N/A,,Clear,250,2013-12-17 18:54:00
2:54 PM,28.9,24.1,82,30.05,8.0,West,11.5,-,N/A,,Overcast,260,2013-12-17 19:54:00
3:21 PM,28.4,24.8,86,29.99,8.0,WNW,12.7,-,N/A,,Overcast,300,2013-12-17 20:21:00
3:54 PM,28.0,23.0,81,30.09,8.0,West,13.8,-,N/A,,Mostly Cloudy,280,2013-12-17 20:54:00
4:10 PM,28.4,23.0,80,30.00,8.0,West,11.5,-,N/A,,Overcast,260,2013-12-17 21:10:00
4:54 PM,28.0,23.0,81,30.09,8.0,WSW,9.2,-,N/A,,Mostly Cloudy,240,2013-12-17 21:54:00
5:54 PM,28.9,24.1,82,30.11,5.0,WSW,10.4,-,0.00,Snow,Light Snow,240,2013-12-17 22:54:00
6:04 PM,28.4,24.8,86,30.03,1.8,WSW,10.4,-,0.00,Snow,Light Snow,240,2013-12-17 23:04:00
6:16 PM,28.4,24.8,86,30.03,2.5,WSW,10.4,-,0.00,Snow,Light Snow,250,2013-12-17 23:16:00
6:40 PM,28.4,24.8,86,30.05,4.0,West,10.4,-,0.00,Snow,Light Snow,260,2013-12-17 23:40:00
6:54 PM,28.9,25.0,85,30.13,8.0,West,10.4,-,0.00,,Overcast,260,2013-12-17 23:54:00
7:54 PM,28.9,24.1,82,30.15,10.0,West,15.0,26.5,N/A,,Overcast,280,2013-12-18 00:54:00
8:54 PM,28.0,23.0,81,30.18,10.0,West,19.6,24.2,N/A,,Overcast,280,2013-12-18 01:54:00
9:54 PM,28.0,23.0,81,30.20,9.0,West,10.4,-,N/A,,Overcast,270,2013-12-18 02:54:00
10:54 PM,28.0,24.1,85,30.22,8.0,WSW,10.4,-,N/A,,Overcast,250,2013-12-18 03:54:00
11:54 PM,28.0,23.0,81,30.22,9.0,West,11.5,-,N/A,,Mostly Cloudy,260,2013-12-18 04:54:00